Flag for Mexico Weather past 2 weeks in Cancún, Quintana Roo, Mexico

Now
77 °F

Scattered clouds.


Feels Like: 79 °F
Forecast: N/A
Wind: 7 mph from North

Location: Cancun International Airport

Current Time: Jan 25, 2015 at 2:28:22 PM

Latest Report: Jan 25, 2015 at 1:42 PM


Visibility: 7 mi

Pressure: 30.02 "Hg

Humidity: 54%

Dew point: 59 °F

Location of CancúnLocation

Historic Weather in Cancún — Graph

°F

Cancún temperature yesterday

Maximum temperature yesterday: 75 °F (at 10:44 AM)
Minimum temperature yesterday: 61 °F (at 10:43 PM)
Average temperature yesterday: 70 °F

Past Weeks' High & Low Weather Summary

 TemperatureHumidityPressure
High86 °F (Jan 23, 12:46 PM)100% (Jan 12, 2:48 AM)30.15 "Hg (Jan 12, 2:48 AM)
Low57 °F (Jan 25, 12:41 AM)54% (Jan 25, 12:46 PM)29.91 "Hg (Jan 24, 2:48 AM)
Average74 °F86%30.04 "Hg
* Reported Jan 10 12:45 PM — Jan 25 12:46 PM, Cancún, Weather by CustomWeather, © 2014

Note: Actual official high and low records may vary slightly from our data, if they occured in-between our weather recording intervals... More about our weather records

Advertising

Cancún weather history for previous 24 hours

 ConditionsComfort  
Time TempWeatherWind HumidityBarometerVisibility
12:46 PM
Jan 25
77 °FBroken clouds.8 mph54%30.03 "Hg7 mi
10:44 AM75 °FScattered clouds.8 mph57%30.09 "Hg7 mi
9:53 AM73 °FScattered clouds.8 mph65%30.10 "Hg7 mi
8:40 AM72 °FPassing clouds.7 mph69%30.09 "Hg7 mi
7:47 AM64 °FPassing clouds.3 mph88%30.09 "Hg7 mi
6:45 AM57 °FPassing clouds.5 mph94%30.08 "Hg7 mi
5:49 AM57 °FClear.5 mph94%30.04 "Hg7 mi
12:41 AM57 °FClear.3 mph100%30.07 "Hg7 mi
10:43 PM
Jan 24
61 °FClear.3 mph88%30.10 "Hg7 mi
9:46 PM63 °FClear.5 mph88%30.11 "Hg7 mi
8:47 PM63 °FClear.3 mph88%30.09 "Hg7 mi
7:47 PM63 °FClear.3 mph88%30.10 "Hg7 mi
6:45 PM66 °FClear.3 mph83%30.08 "Hg7 mi
5:42 PM68 °FPassing clouds.6 mph73%30.04 "Hg7 mi
4:43 PM72 °FBroken clouds.10 mph69%30.05 "Hg7 mi
3:45 PM73 °FPartly sunny.15 mph65%30.04 "Hg7 mi
2:41 PM75 °FBroken clouds.16 mph57%30.02 "Hg7 mi
Weather by CustomWeather, © 2014

See weather overviewHow to use our weather pages